Tracking 19176 objects as of 26-May-2018
HD Live streaming from Space Station
objects crossing your sky now

NOAA 16 DEB

Track NOAA 16 DEB now!
10-day predictions


NORAD ID: 42426
Int'l Code: 2000-055TW
Perigee: 856.8 km
Apogee: 874.5 km
Inclination: 98.8 °
Period: 102.1 minutes
Semi major axis: 7236 km
RCS: Unknown
Launch date: September 21, 2000
Source: United States (US)
Launch site: AIR FORCE WESTERN TEST RANGE (AFWTR)

Note: This is SATELLITE DEBRIS
aabbcc
Your satellite tracking list
Your tracking list is empty




NASA's NSSDC Master Catalog

Two Line Element Set (TLE):
1 42426U 00055TW  18144.99827204 +.00000468 +00000-0 +28812-3 0  9999
2 42426 098.7704 206.6880 0012217 288.1377 071.8463 14.10254328091823
Source of the keplerian elements: AFSPC